Location: Godiavel Galaoual
(15.2485°N, 12.6604°W)
Time: 18:10:02
(UTC+00:00)

NOAA 19 - Visible Passes

Search period start: 23 July 2021 00:00
Search period end: 02 August 2021 00:00
Orbit: 840 x 861 km, 99.2° (Epoch: 23 July)

Date Brightness Start Highest point End Pass type
(mag) Time Alt. Az. Time Alt. Az. Time Alt. Az.
23 Jul 5.4 19:38:28 10° S 19:43:55 80° WSW 19:49:22 10° NNW visible
25 Jul 8.3 21:00:56 10° W 21:01:02 10° W 21:01:08 10° W visible
26 Jul 7.9 20:46:20 10° SW 20:49:14 15° W 20:52:08 10° WNW visible
27 Jul 7.6 20:33:31 10° SSW 20:37:26 20° W 20:41:21 10° NW visible
28 Jul 7.2 20:21:05 10° SSW 20:25:38 27° W 20:30:13 10° NW visible
29 Jul 6.7 20:08:52 10° SSW 20:13:51 37° WSW 20:18:51 10° NW visible
30 Jul 6.1 19:56:49 10° S 20:02:04 51° WSW 20:07:21 10° NNW visible
31 Jul 5.6 19:44:54 10° S 19:50:18 71° WSW 19:55:44 10° NNW visible
01 Aug 5.2 19:33:06 10° SSE 19:38:32 86° E 19:44:00 10° NNW visible
